TimeAKST,TemperatureF,Dew PointF,Humidity,Sea Level PressureIn,VisibilityMPH,Wind Direction,Wind SpeedMPH,Gust SpeedMPH,PrecipitationIn,Events,Conditions,WindDirDegrees,DateUTC
12:53 AM,36.0,34.0,93,29.36,4.0,ENE,24.2,31.1,0.05,Rain-Snow,Light Rain,70,2013-02-09 09:53:00
1:03 AM,35.6,33.8,93,29.34,2.5,ENE,24.2,32.2,0.01,Rain-Snow,Light Rain,70,2013-02-09 10:03:00
1:19 AM,35.6,33.8,93,29.33,3.0,ENE,21.9,31.1,0.03,Rain-Snow,Light Rain,70,2013-02-09 10:19:00
1:53 AM,35.1,34.0,96,29.30,4.0,ENE,25.3,32.2,0.10,Rain-Snow,Light Rain,70,2013-02-09 10:53:00
2:53 AM,37.9,37.0,97,29.24,4.0,ENE,19.6,29.9,0.08,Rain-Snow,Light Rain,70,2013-02-09 11:53:00
3:27 AM,39.2,37.4,93,29.21,5.0,East,4.6,-,0.07,Rain,Light Rain,90,2013-02-09 12:27:00
3:40 AM,37.4,37.4,100,29.21,5.0,East,6.9,-,0.07,Rain,Light Rain,100,2013-02-09 12:40:00
3:53 AM,37.9,37.0,97,29.21,5.0,SSE,4.6,-,0.07,Rain,Light Rain,160,2013-02-09 12:53:00
4:04 AM,35.6,35.6,100,29.19,7.0,Calm,Calm,-,0.00,,Overcast,0,2013-02-09 13:04:00
4:17 AM,35.6,33.8,93,29.19,6.0,South,4.6,-,0.00,,Overcast,170,2013-02-09 13:17:00
4:26 AM,35.6,33.8,93,29.18,5.0,SE,3.5,-,0.00,Rain,Light Rain,130,2013-02-09 13:26:00
4:51 AM,35.6,35.6,100,29.18,6.0,ESE,9.2,-,0.01,Rain,Light Rain,120,2013-02-09 13:51:00
4:53 AM,37.0,36.0,96,29.18,7.0,ESE,6.9,-,0.01,Rain,Light Rain,110,2013-02-09 13:53:00
5:37 AM,41.0,39.2,93,29.17,10.0,SSE,15.0,19.6,0.00,Rain,Light Rain,160,2013-02-09 14:37:00
5:53 AM,42.1,37.9,85,29.18,10.0,SE,11.5,-,0.00,Rain,Light Rain,140,2013-02-09 14:53:00
6:53 AM,41.0,37.0,86,29.17,10.0,SE,9.2,-,0.00,Rain,Light Rain,130,2013-02-09 15:53:00
7:53 AM,41.0,37.9,89,29.16,9.0,SE,19.6,-,0.02,Rain,Light Rain,130,2013-02-09 16:53:00
7:57 AM,41.0,37.4,87,29.15,9.0,SE,15.0,-,0.00,Rain,Light Rain,140,2013-02-09 16:57:00
8:53 AM,41.0,37.9,89,29.13,10.0,SE,21.9,-,0.01,Rain,Light Rain,130,2013-02-09 17:53:00
9:53 AM,41.0,37.0,86,29.11,6.0,SE,18.4,27.6,0.01,Rain,Light Rain,130,2013-02-09 18:53:00
10:53 AM,41.0,37.0,86,29.08,9.0,ESE,21.9,-,0.00,Rain,Light Rain,120,2013-02-09 19:53:00
11:53 AM,41.0,37.9,89,29.05,7.0,ESE,24.2,32.2,0.00,Rain,Light Rain,110,2013-02-09 20:53:00
12:53 PM,39.9,37.9,93,29.00,3.0,ESE,23.0,32.2,0.02,Rain,Light Rain,120,2013-02-09 21:53:00
1:53 PM,39.9,37.9,93,28.96,4.0,ESE,26.5,33.4,0.09,Rain,Rain,120,2013-02-09 22:53:00
2:53 PM,41.0,37.0,86,28.92,3.0,SE,23.0,32.2,0.07,Rain,Rain,130,2013-02-09 23:53:00
3:53 PM,39.9,36.0,86,28.88,6.0,SSE,15.0,-,0.06,Rain,Light Rain,150,2013-02-10 00:53:00
4:05 PM,39.2,35.6,87,28.87,6.0,SE,16.1,24.2,0.02,Rain,Light Rain,140,2013-02-10 01:05:00
4:53 PM,39.9,35.1,83,28.85,9.0,SE,21.9,27.6,0.05,Rain,Light Rain,130,2013-02-10 01:53:00
5:53 PM,39.9,36.0,86,28.83,5.0,SE,18.4,24.2,0.00,Rain,Light Rain,140,2013-02-10 02:53:00
6:53 PM,39.0,37.0,93,28.81,10.0,ESE,12.7,-,0.01,Rain,Light Rain,120,2013-02-10 03:53:00
7:53 PM,39.0,37.0,93,28.80,10.0,East,10.4,-,0.00,,Overcast,90,2013-02-10 04:53:00
8:53 PM,37.9,37.9,100,28.80,5.0,ENE,6.9,-,0.01,Rain,Light Rain,70,2013-02-10 05:53:00
9:53 PM,37.9,37.0,97,28.80,10.0,ESE,3.5,-,0.00,,Overcast,110,2013-02-10 06:53:00
10:53 PM,37.9,37.0,97,28.83,10.0,Calm,Calm,-,N/A,,Overcast,0,2013-02-10 07:53:00
11:53 PM,39.9,35.1,83,28.87,10.0,SSW,11.5,-,N/A,,Overcast,210,2013-02-10 08:53:00